Location: Unspecified
(50.7693°N, 0.0000°E)
Time: 04:30:10
(UTC+00:00)

Transit 4A - Pass Details

Date: 27 June 2019
Orbit: 863 x 981 km, 66.8° (Epoch: 17 August)

Event Time Altitude Azimuth Distance (km) Brightness Sun altitude
Rises 08:00:46 0° 227° (SW) 3,630 10.7 36.3°
Reaches altitude 10° 08:03:19 10° 230° (SW) 2,700 10.1 36.7°
Maximum altitude 08:09:37 65° 312° (NW) 1,071 8.6 37.7°
Drops below altitude 10° 08:16:02 10° 35° (NE) 2,745 10.7 38.7°
Sets 08:18:39 0° 38° (NE) 3,695 11.3 39.1°
